[[{"header":{"parameterUnit":"m.s-1","parameterCategory":1,"la1":30.2991,"la2":30.254,"lo1":-89.0895,"lo2":-89.0444,"dy":0.0017,"dx":0.0017,"nx":28,"ny":28,"refTime":"2024-12-22T09:00:00:Z","depth":0,"parameterNumber":2,"parameterNumberName":"U-component_of_WINDS"},"data":[0,0,0,0,0,0,0,0,0,0,0,0,0,0,0,0,0,0,0,0,0,0,0,0,0,0,0,0,0,0,0,0,0,0,0,0,0,0,0,0,0,0,0,0,0,0,0,0,0,0,0,0,0,0,0,0,0,0,-2.3883,-2.3884,0,-2.3959,-2.396,-2.3961,-2.3859,-2.3855,-2.3852,-2.3848,-2.3928,-2.3934,-2.3939,0,0,0,0,0,0,0,0,0,0,0,0,0,-2.3652,-2.3657,-2.3883,-2.3884,-2.3885,-2.3959,-2.396,-2.3961,-2.386,-2.3855,-2.3851,-2.3847,-2.3927,-2.3933,-2.394,0,0,0,0,0,0,0,0,0,0,0,0,0,-2.3743,-2.3658,-2.3883,-2.3843,-2.3841,-2.3959,-2.396,-2.3961,-2.3861,-2.3855,-2.385,-2.3844,-2.3924,-2.3933,-2.3941,-2.4102,0,0,-2.3966,-2.397,0,0,0,0,0,0,0,0,-2.3738,-2.3751,-2.3848,-2.3846,-2.3843,-2.3894,-2.3908,-2.4009,-2.3862,-2.3853,-2.3848,-2.3842,-2.3922,-2.393,-2.3956,-2.4106,-2.4109,-2.3967,-2.3972,-2.3976,-2.3978,0,0,0,0,0,0,0,-2.3732,-2.3748,-2.3913,-2.385,-2.3847,-2.3822,-2.3829,-2.3926,-2.3917,-2.3854,-2.3846,-2.3857,-2.3919,-2.3948,-2.3957,-2.4111,-2.3967,-2.3974,-2.3979,-2.3982,-2.4397,-2.4403,0,0,0,0,0,0,-2.373,-2.3743,-2.3911,-2.3916,-2.3776,-2.3831,-2.3838,-2.3883,-2.3916,-2.3916,-2.3861,-2.3851,-2.3937,-2.3948,-2.396,-2.4152,-2.3975,-2.3983,-2.3988,-2.4391,-2.4398,-2.4405,0,0,0,0,0,0,-2.3725,-2.3746,-2.3908,-2.3827,-2.3846,-2.3841,-2.3892,-2.3888,-2.3917,-2.3922,-2.392,-2.3893,-2.3933,-2.3948,-2.4067,-2.4154,-2.3987,-2.3995,-2.4384,-2.4393,-2.4402,-2.4538,0,0,0,0,0,0,-2.3719,-2.3745,-2.3806,-2.383,-2.3851,-2.4015,-2.3897,-2.3893,-2.3931,-2.3919,-2.3951,-2.3951,-2.393,-2.4056,-2.4076,-2.4162,-2.4001,-2.4376,-2.4388,-2.4399,-2.4526,-2.4551,-2.4572,0,0,0,0,0,-2.3711,-2.3842,-2.381,-2.3831,-2.3927,-2.402,-2.4032,-2.4005,-2.3939,-2.4001,-2.4003,-2.395,-2.414,-2.4069,-2.4091,-2.4181,-2.4371,-2.4385,-2.4398,-2.4516,-2.4546,-2.4571,0,0,0,0,0,0,-2.383,-2.3844,-2.3809,-2.3951,-2.3985,-2.4002,-2.408,-2.4037,-2.4091,-2.4078,-2.4042,-2.405,-2.4178,-2.419,-2.4111,-2.4339,-2.4245,-2.4263,-2.4327,-2.4355,-2.4378,-2.4374,-2.4008,0,0,0,0,0,-2.3872,-2.3946,-2.3954,-2.4079,-2.4098,-2.4086,-2.4125,-2.4101,-2.4135,-2.4149,-2.4161,-2.4196,-2.4264,-2.431,-2.4372,-2.4526,-2.4532,-2.4598,-2.4621,-2.464,-2.4657,-2.474,-2.4771,-2.4449,-2.4449,-2.4449,0,0,-2.3962,-2.3978,-2.4027,-2.4103,-2.4127,-2.4204,-2.4099,-2.4185,-2.4243,-2.4162,-2.4277,-2.4286,-2.4323,-2.4461,-2.4522,-2.4475,-2.4747,-2.4657,-2.4672,-2.468,-2.4757,-2.4788,-2.4815,-2.4458,-2.4457,-2.4455,0,0,-2.4164,-2.4184,-2.429,-2.4315,-2.4351,-2.4342,-2.4368,-2.4392,-2.4395,-2.4508,-2.4449,-2.4517,-2.4634,-2.4663,-2.4694,-2.4905,-2.4859,-2.4926,-2.5048,-2.5129,-2.5154,-2.5177,-2.5254,-2.5282,-2.4943,-2.4943,-2.4944,0,-2.4271,-2.4386,-2.435,-2.4441,-2.4477,-2.4405,-2.4513,-2.4539,-2.4595,-2.4622,-2.4567,-2.4713,-2.4733,-2.4877,-2.4928,-2.4954,-2.4983,-2.4924,-2.5153,-2.5175,-2.5196,-2.5269,-2.5298,-2.4951,-2.4951,-2.495,-2.4949,0,-2.4516,-2.4596,-2.4677,-2.4732,-2.4776,-2.4875,-2.4856,-2.4904,-2.4875,-2.4872,-2.4988,-2.5009,-2.5075,-2.5106,-2.5079,-2.5247,-2.5217,-2.5159,-2.5064,-2.5235,-2.5304,-2.5331,-2.4963,-2.496,-2.4958,-2.4956,0,0,-2.48,-2.4831,-2.4862,-2.4886,-2.492,-2.4981,-2.5076,-2.514,-2.5183,-2.5223,-2.5303,-2.5403,-2.5349,-2.5383,-2.5358,-2.5429,-2.5598,-2.5362,-2.5362,-2.5407,-2.5785,-2.5831,-2.5864,-2.5565,-2.557,-2.5574,-2.5783,0,-2.5004,-2.5169,-2.5139,-2.53,-2.5374,-2.5306,-2.5389,-2.5419,-2.5418,-2.5481,-2.5479,-2.5551,-2.5473,-2.5494,-2.5561,-2.5563,-2.5673,-2.5547,-2.5641,-2.5645,-2.5637,-2.59,-2.5949,-2.6145,-2.5809,-2.5814,-2.5817,0,-2.5266,-2.5314,-2.5483,-2.5504,-2.5534,-2.561,-2.5665,-2.5725,-2.5757,-2.5751,-2.5789,-2.575,-2.5846,-2.5747,-2.5878,-2.5793,-2.5829,-2.5836,-2.5842,-2.5853,-2.5744,-2.592,-2.6206,-2.6237,-2.5858,-2.5855,-2.5852,0,-2.5459,-2.5566,-2.5681,-2.5703,-2.573,-2.5785,-2.5799,-2.5825,-2.5865,-2.5913,-2.5939,-2.5998,-2.6031,-2.6077,-2.6055,-2.5985,-2.6192,-2.6091,-2.6191,-2.6192,-2.6241,-2.6239,-2.654,-2.6259,-2.6258,-2.6258,-2.6257,0,-2.5693,-2.5799,-2.5768,-2.5839,-2.5956,-2.592,-2.6037,-2.6042,-2.6066,-2.6137,-2.6081,-2.6149,-2.6114,-2.618,-2.6163,-2.6276,-2.629,-2.6289,-2.6284,-2.6296,-2.6297,-2.6322,-2.6309,-2.6266,-2.6264,-2.6262,-2.6261,0,-2.593,-2.5913,-2.6034,-2.6049,-2.6055,-2.6141,-2.6154,-2.6221,-2.6214,-2.6305,-2.6324,-2.6314,-2.6388,-2.637,-2.6451,-2.6439,-2.6582,-2.6558,-2.6571,-2.6567,-2.6669,-2.6661,-2.7,-2.7043,-2.6731,-2.6734,-2.6737,0,-2.6082,-2.6162,-2.6185,-2.6229,-2.6247,-2.6317,-2.6357,-2.6324,-2.6368,-2.6409,-2.6471,-2.654,-2.6594,-2.6715,-2.6716,-2.6777,-2.6756,-2.687,-2.6765,-2.6775,-2.6761,-2.6758,-2.6767,-2.6893,-2.6897,-2.6899,-2.6902,0,-2.6355,-2.6342,-2.6401,-2.6458,-2.6507,-2.655,-2.6588,-2.6627,-2.6596,-2.6649,-2.6723,-2.6765,-2.6846,-2.6916,-2.6972,-2.6986,-2.6941,-2.6934,-2.6961,-2.6976,-2.6982,-2.6983,-2.6632,-2.6928,-2.6925,-2.6923,-2.6922,-2.6921,-2.6556,-2.6624,-2.6651,-2.6719,-2.6744,-2.678,-2.6843,-2.6844,-2.6905,-2.6969,-2.6945,-2.7031,-2.706,-2.713,-2.7152,-2.7218,-2.7175,-2.7214,-2.7224,-2.7235,-2.7249,-2.6968,-2.7228,-2.7227,-2.7227,-2.7226,-2.7225,0,-2.6828,-2.6841,-2.6904,-2.6958,-2.7012,-2.696,-2.6999,-2.7048,-2.7124,-2.7154,-2.7208,-2.7294,-2.736,-2.7365,-2.7427,-2.748,-2.746,-2.7498,-2.7496,-2.75,-2.7283,-2.7255,-2.7513,-2.7513,-2.7513,-2.7513,-2.7513,-2.7513,-2.6976,-2.7089,-2.7079,-2.7204,-2.7216,-2.7299,-2.7326,-2.736,-2.7384,-2.7482,-2.7537,-2.7538,-2.7558,-2.7622,-2.7681,-2.768,-2.7707,-2.7753,-2.7745,-2.7543,-2.7515,-2.7488,-2.7461,-2.7759,-2.7759,-2.7957,-2.7959,-2.796]},{"header":{"parameterUnit":"m.s-1","parameterCategory":1,"la1":30.2991,"la2":30.254,"lo1":-89.0895,"lo2":-89.0444,"dy":0.0017,"dx":0.0017,"nx":28,"ny":28,"refTime":"2024-12-22T09:00:00:Z","depth":0,"parameterNumber":3,"parameterNumberName":"V-component_of_WINDS"},"data":[0,0,0,0,0,0,0,0,0,0,0,0,0,0,0,0,0,0,0,0,0,0,0,0,0,0,0,0,0,0,0,0,0,0,0,0,0,0,0,0,0,0,0,0,0,0,0,0,0,0,0,0,0,0,0,0,0,0,-5.4448,-5.4449,0,-5.4559,-5.456,-5.4561,-5.4479,-5.4475,-5.4472,-5.4468,-5.4578,-5.4584,-5.459,0,0,0,0,0,0,0,0,0,0,0,0,0,-5.416,-5.4166,-5.4448,-5.4449,-5.4451,-5.4559,-5.456,-5.4562,-5.4479,-5.4475,-5.4471,-5.4466,-5.4575,-5.4583,-5.459,0,0,0,0,0,0,0,0,0,0,0,0,0,-5.428,-5.4168,-5.4448,-5.4423,-5.4422,-5.4558,-5.456,-5.4562,-5.448,-5.4475,-5.4469,-5.4464,-5.4573,-5.4582,-5.4591,-5.4757,0,0,-5.462,-5.4624,0,0,0,0,0,0,0,0,-5.4273,-5.429,-5.4425,-5.4425,-5.4424,-5.45,-5.4499,-5.4628,-5.4482,-5.4458,-5.4468,-5.4462,-5.4556,-5.4566,-5.4599,-5.4763,-5.4767,-5.4621,-5.4627,-5.4631,-5.4633,0,0,0,0,0,0,0,-5.4265,-5.4285,-5.4492,-5.4427,-5.4426,-5.4404,-5.4415,-5.4523,-5.4536,-5.446,-5.4454,-5.4468,-5.4554,-5.459,-5.4601,-5.4769,-5.4621,-5.4629,-5.4635,-5.4639,-5.5073,-5.5078,0,0,0,0,0,0,-5.4259,-5.4279,-5.4488,-5.4495,-5.4334,-5.4414,-5.4426,-5.4481,-5.4534,-5.4537,-5.4473,-5.4464,-5.4576,-5.459,-5.4604,-5.4801,-5.4631,-5.4639,-5.4645,-5.5067,-5.5074,-5.508,0,0,0,0,0,0,-5.4254,-5.4279,-5.4484,-5.4385,-5.441,-5.4425,-5.4486,-5.4486,-5.4521,-5.4544,-5.4546,-5.4507,-5.4573,-5.4591,-5.472,-5.4804,-5.4644,-5.4652,-5.506,-5.5069,-5.5077,-5.5197,0,0,0,0,0,0,-5.4246,-5.4277,-5.4342,-5.4388,-5.4415,-5.46,-5.4492,-5.4492,-5.4538,-5.4528,-5.4577,-5.458,-5.457,-5.4706,-5.4729,-5.4814,-5.466,-5.5052,-5.5064,-5.5074,-5.5186,-5.5209,-5.5229,0,0,0,0,0,-5.4236,-5.4371,-5.4346,-5.4371,-5.4497,-5.4605,-5.462,-5.4607,-5.4545,-5.4609,-5.4624,-5.4578,-5.4791,-5.472,-5.4745,-5.4834,-5.5047,-5.5061,-5.5074,-5.5176,-5.5205,-5.5229,0,0,0,0,0,0,-5.4333,-5.4376,-5.4349,-5.4503,-5.4551,-5.459,-5.4671,-5.4638,-5.4704,-5.4691,-5.4671,-5.4682,-5.4818,-5.4838,-5.4759,-5.4997,-5.4909,-5.4928,-5.4978,-5.5006,-5.5027,-5.5019,-5.4667,0,0,0,0,0,-5.4373,-5.4459,-5.4491,-5.4623,-5.4649,-5.4656,-5.4703,-5.4689,-5.4737,-5.4756,-5.478,-5.4828,-5.4905,-5.4956,-5.5029,-5.5188,-5.5197,-5.5262,-5.5283,-5.5301,-5.5317,-5.5402,-5.5431,-5.5124,-5.5124,-5.5124,0,0,-5.4455,-5.4489,-5.4544,-5.4644,-5.4679,-5.4767,-5.4674,-5.4771,-5.4835,-5.477,-5.4894,-5.4913,-5.4965,-5.511,-5.5174,-5.5131,-5.5404,-5.5318,-5.5332,-5.5339,-5.5419,-5.5448,-5.5473,-5.5133,-5.5131,-5.513,0,0,-5.465,-5.4685,-5.4799,-5.4837,-5.4892,-5.4896,-5.4923,-5.4968,-5.4979,-5.5103,-5.5056,-5.5131,-5.5265,-5.5303,-5.534,-5.5549,-5.5509,-5.5573,-5.5685,-5.5768,-5.5792,-5.5814,-5.5887,-5.5914,-5.5589,-5.559,-5.559,0,-5.4745,-5.4877,-5.4862,-5.4962,-5.5006,-5.4953,-5.5068,-5.5104,-5.518,-5.5211,-5.5162,-5.5328,-5.5359,-5.5512,-5.5563,-5.5595,-5.5624,-5.5567,-5.579,-5.5812,-5.5831,-5.5901,-5.5929,-5.5597,-5.5596,-5.5595,-5.5595,0,-5.499,-5.5082,-5.5167,-5.5243,-5.5297,-5.5404,-5.5403,-5.5459,-5.544,-5.5449,-5.5575,-5.561,-5.5688,-5.5723,-5.5705,-5.5873,-5.5844,-5.5793,-5.5704,-5.5868,-5.5933,-5.596,-5.5608,-5.5605,-5.5603,-5.5601,0,0,-5.525,-5.5316,-5.5348,-5.5381,-5.5437,-5.5507,-5.5611,-5.5689,-5.5737,-5.579,-5.5876,-5.599,-5.5943,-5.5985,-5.597,-5.6043,-5.6205,-5.5983,-5.5984,-5.6022,-5.6391,-5.6428,-5.646,-5.6179,-5.6184,-5.6188,-5.6386,0,-5.5447,-5.563,-5.5618,-5.5789,-5.5873,-5.5823,-5.5913,-5.5957,-5.5967,-5.6038,-5.6049,-5.613,-5.6062,-5.6087,-5.6157,-5.6171,-5.6278,-5.6156,-5.6256,-5.626,-5.6245,-5.6494,-5.6535,-5.672,-5.6411,-5.6416,-5.6419,0,-5.5702,-5.5766,-5.5945,-5.5988,-5.6023,-5.6104,-5.6174,-5.6243,-5.6291,-5.6293,-5.634,-5.6314,-5.6416,-5.6325,-5.6466,-5.6383,-5.6423,-5.6436,-5.6442,-5.6451,-5.6349,-5.6508,-5.6779,-5.6807,-5.6459,-5.6456,-5.6453,0,-5.5873,-5.6003,-5.6127,-5.6157,-5.6211,-5.6269,-5.6294,-5.6336,-5.6383,-5.6444,-5.6474,-5.6545,-5.6584,-5.6639,-5.6631,-5.6566,-5.6774,-5.6682,-5.6777,-5.6777,-5.6823,-5.682,-5.7103,-5.685,-5.6849,-5.6849,-5.6848,0,-5.6094,-5.6205,-5.6204,-5.628,-5.6403,-5.6388,-5.651,-5.6528,-5.6566,-5.6643,-5.6604,-5.6677,-5.6663,-5.6736,-5.673,-5.6847,-5.6865,-5.6868,-5.6865,-5.6872,-5.6871,-5.6897,-5.6884,-5.6856,-5.6855,-5.6853,-5.6852,0,-5.6305,-5.6309,-5.6441,-5.6481,-5.6494,-5.6582,-5.6616,-5.6687,-5.6694,-5.6792,-5.6814,-5.6825,-5.6908,-5.6906,-5.7001,-5.6997,-5.714,-5.7122,-5.7124,-5.712,-5.7215,-5.7206,-5.7524,-5.7565,-5.7286,-5.7289,-5.7291,0,-5.6446,-5.6531,-5.658,-5.663,-5.6659,-5.6739,-5.6787,-5.6775,-5.6827,-5.6887,-5.6951,-5.703,-5.7094,-5.7229,-5.7244,-5.7315,-5.7299,-5.7405,-5.7309,-5.7313,-5.73,-5.7295,-5.7302,-5.7424,-5.7427,-5.743,-5.7432,0,-5.6695,-5.6693,-5.6764,-5.6837,-5.6895,-5.6951,-5.7003,-5.7045,-5.7038,-5.7098,-5.7183,-5.7233,-5.7329,-5.7408,-5.7477,-5.75,-5.7465,-5.7462,-5.7488,-5.7495,-5.7492,-5.7494,-5.7175,-5.7455,-5.7453,-5.7451,-5.745,-5.7449,-5.6875,-5.6948,-5.6994,-5.7074,-5.7112,-5.7161,-5.7229,-5.7245,-5.7317,-5.7395,-5.7383,-5.7478,-5.7522,-5.7611,-5.7641,-5.7714,-5.7676,-5.7713,-5.7722,-5.7732,-5.7742,-5.7481,-5.7726,-5.7725,-5.7725,-5.7724,-5.7724,0,-5.7121,-5.7149,-5.7223,-5.7297,-5.736,-5.7322,-5.7377,-5.7431,-5.7516,-5.7561,-5.7624,-5.7721,-5.7798,-5.7819,-5.7892,-5.7947,-5.7932,-5.7966,-5.7962,-5.7967,-5.7772,-5.7742,-5.7977,-5.7977,-5.7976,-5.7976,-5.7976,-5.7976,-5.7257,-5.7378,-5.7381,-5.7519,-5.7544,-5.7639,-5.7673,-5.7717,-5.7752,-5.7864,-5.7927,-5.7941,-5.7976,-5.8051,-5.8119,-5.8123,-5.8151,-5.8192,-5.8189,-5.8007,-5.7981,-5.7957,-5.7929,-5.8198,-5.8199,-5.8378,-5.838,-5.8381]}]]